Time,TemperatureF,DewpointF,PressureIn,WindDirection,WindDirectionDegrees,WindSpeedMPH,WindSpeedGustMPH,Humidity,HourlyPrecipIn,Conditions,Clouds,dailyrainin,SoftwareType,DateUTC
2013-04-03 10:33:00,47.0,20.0,30.26,NNE,22,8.1,8.1,34,0.00,CLR,SKC,0.00,WeatherDisplay:10.37,2013-04-03 14:33:00,
2013-04-03 10:34:00,48.0,21.6,30.26,North,360,8.1,8.1,35,0.00,CLR,SKC,0.00,WeatherDisplay:10.37,2013-04-03 14:34:00,
2013-04-03 10:39:00,48.0,20.9,30.26,NNE,22,8.1,8.1,34,0.00,CLR,SKC,0.00,WeatherDisplay:10.37,2013-04-03 14:39:00,
2013-04-03 10:44:00,48.0,21.6,30.26,ENE,67,9.2,9.2,35,0.00,CLR,SKC,0.00,WeatherDisplay:10.37,2013-04-03 14:44:00,
2013-04-03 10:49:00,50.0,22.0,30.26,NNE,22,6.9,6.9,33,0.00,CLR,SKC,0.00,WeatherDisplay:10.37,2013-04-03 14:49:00,
2013-04-03 10:54:00,49.0,20.4,30.26,NNE,22,11.5,11.5,32,0.00,CLR,SKC,0.00,WeatherDisplay:10.37,2013-04-03 14:54:00,
2013-04-03 10:59:00,50.0,21.3,30.25,NNE,22,9.2,9.2,32,0.00,CLR,SKC,0.00,WeatherDisplay:10.37,2013-04-03 14:59:00,
2013-04-03 11:04:00,50.0,21.3,30.25,NE,45,5.8,5.8,32,0.00,CLR,SKC,0.00,WeatherDisplay:10.37,2013-04-03 15:04:00,
2013-04-03 11:09:00,50.0,21.3,30.25,NW,315,10.4,10.4,32,0.00,CLR,SKC,0.00,WeatherDisplay:10.37,2013-04-03 15:09:00,
2013-04-03 11:14:00,50.0,19.7,30.25,NE,45,11.5,11.5,30,0.00,CLR,SKC,0.00,WeatherDisplay:10.37,2013-04-03 15:14:00,
2013-04-03 11:19:00,50.0,21.3,30.24,SE,135,9.2,9.2,32,0.00,CLR,SKC,0.00,WeatherDisplay:10.37,2013-04-03 15:19:00,
2013-04-03 11:24:00,49.0,19.6,30.24,SSE,157,10.4,10.4,31,0.00,CLR,SKC,0.00,WeatherDisplay:10.37,2013-04-03 15:24:00,
2013-04-03 11:29:00,50.0,22.0,30.24,WNW,292,5.8,5.8,33,0.00,CLR,SKC,0.00,WeatherDisplay:10.37,2013-04-03 15:29:00,
2013-04-03 11:34:00,51.0,22.1,30.24,NE,45,9.0,9.0,32,0.00,CLR,SKC,0.00,WeatherDisplay:10.37,2013-04-03 15:34:00,
2013-04-03 11:39:00,51.0,20.6,30.23,NE,45,10.4,10.4,30,0.00,CLR,SKC,0.00,WeatherDisplay:10.37,2013-04-03 15:39:00,
2013-04-03 11:44:00,51.0,22.1,30.23,WSW,247,4.6,4.6,32,0.00,CLR,SKC,0.00,WeatherDisplay:10.37,2013-04-03 15:44:00,
2013-04-03 11:49:00,51.0,20.6,30.24,ESE,112,5.8,5.8,30,0.00,CLR,SKC,0.00,WeatherDisplay:10.37,2013-04-03 15:49:00,
2013-04-03 11:54:00,51.0,20.6,30.23,NNE,22,8.0,8.0,30,0.00,CLR,SKC,0.00,WeatherDisplay:10.37,2013-04-03 15:54:00,
2013-04-03 12:00:00,52.0,22.3,30.23,SW,225,4.6,4.6,31,0.00,CLR,SKC,0.00,WeatherDisplay:10.37,2013-04-03 16:00:00,
2013-04-03 12:05:00,52.0,21.5,30.22,NNW,337,6.9,6.9,30,0.00,CLR,SKC,0.00,WeatherDisplay:10.37,2013-04-03 16:05:00,
2013-04-03 12:10:00,53.0,21.6,30.22,NNE,22,10.0,10.0,29,0.00,CLR,SKC,0.00,WeatherDisplay:10.37,2013-04-03 16:10:00,
2013-04-03 12:16:00,53.0,23.1,30.21,North,360,6.9,6.9,31,0.00,CLR,SKC,0.00,WeatherDisplay:10.37,2013-04-03 16:16:00,
2013-04-03 12:21:00,53.0,21.6,30.21,NNE,22,10.4,10.4,29,0.00,CLR,SKC,0.00,WeatherDisplay:10.37,2013-04-03 16:21:00,
2013-04-03 12:26:00,51.0,19.8,30.22,ENE,67,9.2,9.2,29,0.00,CLR,SKC,0.00,WeatherDisplay:10.37,2013-04-03 16:26:00,
2013-04-03 12:31:00,52.0,21.5,30.22,SE,135,6.0,6.0,30,0.00,CLR,SKC,0.00,WeatherDisplay:10.37,2013-04-03 16:31:00,
2013-04-03 12:36:00,53.0,22.4,30.21,North,360,9.2,9.2,30,0.00,CLR,SKC,0.00,WeatherDisplay:10.37,2013-04-03 16:36:00,
2013-04-03 12:41:00,53.0,21.6,30.21,NNE,22,11.5,11.5,29,0.00,CLR,SKC,0.00,WeatherDisplay:10.37,2013-04-03 16:41:00,
2013-04-03 12:46:00,53.0,21.6,30.21,WSW,247,6.9,6.9,29,0.00,CLR,SKC,0.00,WeatherDisplay:10.37,2013-04-03 16:46:00,
2013-04-03 12:52:00,53.0,21.6,30.21,NE,45,5.0,5.0,29,0.00,CLR,SKC,0.00,WeatherDisplay:10.37,2013-04-03 16:52:00,
2013-04-03 12:57:00,54.0,24.0,30.21,WNW,292,5.8,5.8,31,0.00,CLR,SKC,0.00,WeatherDisplay:10.37,2013-04-03 16:57:00,
2013-04-03 13:02:00,53.0,22.4,30.21,WNW,292,11.5,11.5,30,0.00,CLR,SKC,0.00,WeatherDisplay:10.37,2013-04-03 17:02:00,
2013-04-03 13:07:00,55.0,24.1,30.20,NNE,22,6.0,6.0,30,0.00,CLR,SKC,0.00,WeatherDisplay:10.37,2013-04-03 17:07:00,
2013-04-03 13:12:00,54.0,23.2,30.20,SW,225,6.9,6.9,30,0.00,CLR,SKC,0.00,WeatherDisplay:10.37,2013-04-03 17:12:00,
2013-04-03 13:17:00,54.0,22.4,30.20,SSW,202,6.9,6.9,29,0.00,CLR,SKC,0.00,WeatherDisplay:10.37,2013-04-03 17:17:00,
2013-04-03 13:22:00,54.0,22.4,30.20,North,360,6.9,6.9,29,0.00,CLR,SKC,0.00,WeatherDisplay:10.37,2013-04-03 17:22:00,
2013-04-03 13:27:00,54.0,22.4,30.20,SE,135,4.6,4.6,29,0.00,CLR,SKC,0.00,WeatherDisplay:10.37,2013-04-03 17:27:00,
2013-04-03 13:32:00,56.0,23.3,30.20,West,270,6.0,6.0,28,0.00,CLR,SKC,0.00,WeatherDisplay:10.37,2013-04-03 17:32:00,
2013-04-03 13:37:00,56.0,23.3,30.19,WSW,247,9.2,9.2,28,0.00,CLR,SKC,0.00,WeatherDisplay:10.37,2013-04-03 17:37:00,
2013-04-03 13:42:00,55.0,22.4,30.19,West,270,8.1,8.1,28,0.00,CLR,SKC,0.00,WeatherDisplay:10.37,2013-04-03 17:42:00,
2013-04-03 13:47:00,56.0,24.2,30.19,NW,315,5.0,5.0,29,0.00,CLR,SKC,0.00,WeatherDisplay:10.37,2013-04-03 17:47:00,
2013-04-03 13:52:00,56.0,23.3,30.19,NNE,22,10.4,10.4,28,0.00,CLR,SKC,0.00,WeatherDisplay:10.37,2013-04-03 17:52:00,
2013-04-03 13:57:00,56.0,24.2,30.18,NNW,337,5.8,5.8,29,0.00,CLR,SKC,0.00,WeatherDisplay:10.37,2013-04-03 17:57:00,
2013-04-03 14:02:00,56.0,23.3,30.18,WSW,247,8.1,8.1,28,0.00,CLR,SKC,0.00,WeatherDisplay:10.37,2013-04-03 18:02:00,
2013-04-03 14:07:00,56.0,23.3,30.18,North,360,6.0,6.0,28,0.00,CLR,SKC,0.00,WeatherDisplay:10.37,2013-04-03 18:07:00,
2013-04-03 14:12:00,55.0,22.4,30.18,NNE,22,10.4,10.4,28,0.00,CLR,SKC,0.00,WeatherDisplay:10.37,2013-04-03 18:12:00,
2013-04-03 14:17:00,56.0,24.2,30.17,West,270,8.1,8.1,29,0.00,CLR,SKC,0.00,WeatherDisplay:10.37,2013-04-03 18:17:00,
2013-04-03 14:23:00,57.0,25.0,30.17,West,270,8.1,8.1,29,0.00,CLR,SKC,0.00,WeatherDisplay:10.37,2013-04-03 18:23:00,
2013-04-03 14:28:00,56.0,23.3,30.17,WSW,247,10.4,10.4,28,0.00,CLR,SKC,0.00,WeatherDisplay:10.37,2013-04-03 18:28:00,
2013-04-03 14:33:00,56.0,24.2,30.17,WSW,247,8.0,8.0,29,0.00,CLR,SKC,0.00,WeatherDisplay:10.37,2013-04-03 18:33:00,
2013-04-03 14:38:00,56.0,24.2,30.16,SSW,202,4.0,4.0,29,0.00,CLR,SKC,0.00,WeatherDisplay:10.37,2013-04-03 18:38:00,
2013-04-03 14:43:00,56.0,23.3,30.16,WNW,292,6.9,6.9,28,0.00,CLR,SKC,0.00,WeatherDisplay:10.37,2013-04-03 18:43:00,
2013-04-03 14:48:00,56.0,23.3,30.15,NNW,337,8.1,8.1,28,0.00,CLR,SKC,0.00,WeatherDisplay:10.37,2013-04-03 18:48:00,
2013-04-03 14:53:00,58.0,25.0,30.15,West,270,7.0,7.0,28,0.00,CLR,SKC,0.00,WeatherDisplay:10.37,2013-04-03 18:53:00,
2013-04-03 14:58:00,57.0,25.0,30.15,West,270,11.5,11.5,29,0.00,CLR,SKC,0.00,WeatherDisplay:10.37,2013-04-03 18:58:00,
2013-04-03 15:03:00,57.0,25.0,30.15,South,180,3.0,3.0,29,0.00,CLR,SKC,0.00,WeatherDisplay:10.37,2013-04-03 19:03:00,
2013-04-03 15:08:00,59.0,25.9,30.14,WSW,247,5.8,5.8,28,0.00,CLR,SKC,0.00,WeatherDisplay:10.37,2013-04-03 19:08:00,
2013-04-03 15:13:00,58.0,25.0,30.14,SSE,157,5.8,5.8,28,0.00,CLR,SKC,0.00,WeatherDisplay:10.37,2013-04-03 19:13:00,
2013-04-03 15:18:00,59.0,25.0,30.13,West,270,9.0,9.0,27,0.00,CLR,SKC,0.00,WeatherDisplay:10.37,2013-04-03 19:18:00,
2013-04-03 15:23:00,59.0,25.0,30.13,West,270,2.3,0.0,27,0.00,CLR,SKC,0.00,WeatherDisplay:10.37,2013-04-03 19:23:00,
2013-04-03 15:28:00,60.0,23.1,30.13,South,180,9.2,9.2,24,0.00,CLR,SKC,0.00,WeatherDisplay:10.37,2013-04-03 19:28:00,
2013-04-03 15:33:00,60.0,23.1,30.13,WSW,247,7.0,7.0,24,0.00,CLR,SKC,0.00,WeatherDisplay:10.37,2013-04-03 19:33:00,
2013-04-03 15:38:00,59.0,24.1,30.13,North,360,4.6,4.6,26,0.00,CLR,SKC,0.00,WeatherDisplay:10.37,2013-04-03 19:38:00,
2013-04-03 15:43:00,59.0,24.1,30.13,West,270,11.5,11.5,26,0.00,CLR,SKC,0.00,WeatherDisplay:10.37,2013-04-03 19:43:00,
2013-04-03 15:48:00,58.0,24.2,30.13,West,270,8.0,8.0,27,0.00,CLR,SKC,0.00,WeatherDisplay:10.37,2013-04-03 19:48:00,
2013-04-03 15:54:00,57.0,22.4,30.13,West,270,8.1,8.1,26,0.00,CLR,SKC,0.00,WeatherDisplay:10.37,2013-04-03 19:54:00,
2013-04-03 15:59:00,57.0,22.4,30.14,West,270,8.1,8.1,26,0.00,CLR,SKC,0.00,WeatherDisplay:10.37,2013-04-03 19:59:00,
2013-04-03 16:04:00,57.0,22.4,30.14,WNW,292,6.9,6.9,26,0.00,CLR,SKC,0.00,WeatherDisplay:10.37,2013-04-03 20:04:00,
2013-04-03 16:09:00,58.0,25.0,30.14,WSW,247,9.0,9.0,28,0.00,CLR,SKC,0.00,WeatherDisplay:10.37,2013-04-03 20:09:00,
2013-04-03 16:14:00,59.0,25.0,30.14,WNW,292,6.9,6.9,27,0.00,CLR,SKC,0.00,WeatherDisplay:10.37,2013-04-03 20:14:00,
2013-04-03 16:19:00,57.0,21.5,30.14,West,270,12.7,12.7,25,0.00,CLR,SKC,0.00,WeatherDisplay:10.37,2013-04-03 20:19:00,
2013-04-03 16:25:00,58.0,23.3,30.14,West,270,7.0,7.0,26,0.00,CLR,SKC,0.00,WeatherDisplay:10.37,2013-04-03 20:25:00,
2013-04-03 16:30:00,58.0,22.3,30.14,West,270,10.0,10.0,25,0.00,CLR,SKC,0.00,WeatherDisplay:10.37,2013-04-03 20:30:00,
2013-04-03 16:35:00,58.0,23.3,30.14,West,270,6.0,6.0,26,0.00,CLR,SKC,0.00,WeatherDisplay:10.37,2013-04-03 20:35:00,
2013-04-03 16:40:00,58.0,23.3,30.14,WNW,292,5.8,5.8,26,0.00,CLR,SKC,0.00,WeatherDisplay:10.37,2013-04-03 20:40:00,
2013-04-03 16:45:00,59.0,24.1,30.14,WSW,247,5.8,5.8,26,0.00,CLR,SKC,0.00,WeatherDisplay:10.37,2013-04-03 20:45:00,
2013-04-03 16:50:00,58.0,24.2,30.14,West,270,11.0,11.0,27,0.00,CLR,SKC,0.00,WeatherDisplay:10.37,2013-04-03 20:50:00,
2013-04-03 16:55:00,57.0,22.4,30.14,WNW,292,9.2,9.2,26,0.00,CLR,SKC,0.00,WeatherDisplay:10.37,2013-04-03 20:55:00,
2013-04-03 17:00:00,57.0,24.2,30.14,SW,225,7.0,7.0,28,0.00,CLR,SKC,0.00,WeatherDisplay:10.37,2013-04-03 21:00:00,
2013-04-03 17:05:00,57.0,23.3,30.15,WSW,247,4.6,4.6,27,0.00,CLR,SKC,0.00,WeatherDisplay:10.37,2013-04-03 21:05:00,
2013-04-03 17:10:00,57.0,22.4,30.15,North,360,8.1,8.1,26,0.00,CLR,SKC,0.00,WeatherDisplay:10.37,2013-04-03 21:10:00,
2013-04-03 17:15:00,58.0,24.2,30.15,WSW,247,4.6,4.6,27,0.00,CLR,SKC,0.00,WeatherDisplay:10.37,2013-04-03 21:15:00,
2013-04-03 17:20:00,57.0,23.3,30.15,West,270,9.0,9.0,27,0.00,CLR,SKC,0.00,WeatherDisplay:10.37,2013-04-03 21:20:00,
2013-04-03 17:25:00,57.0,23.3,30.16,WNW,292,8.1,8.1,27,0.00,CLR,SKC,0.00,WeatherDisplay:10.37,2013-04-03 21:25:00,
2013-04-03 17:30:00,57.0,23.3,30.16,WSW,247,11.5,11.5,27,0.00,CLR,SKC,0.00,WeatherDisplay:10.37,2013-04-03 21:30:00,
2013-04-03 17:35:00,57.0,23.3,30.16,West,270,6.9,6.9,27,0.00,CLR,SKC,0.00,WeatherDisplay:10.37,2013-04-03 21:35:00,
2013-04-03 17:40:00,57.0,23.3,30.16,WNW,292,4.6,4.6,27,0.00,CLR,SKC,0.00,WeatherDisplay:10.37,2013-04-03 21:40:00,
2013-04-03 17:45:00,57.0,23.3,30.17,WNW,292,6.9,6.9,27,0.00,CLR,SKC,0.00,WeatherDisplay:10.37,2013-04-03 21:45:00,
2013-04-03 17:50:00,57.0,24.2,30.17,West,270,6.9,6.9,28,0.00,CLR,SKC,0.00,WeatherDisplay:10.37,2013-04-03 21:50:00,
2013-04-03 17:55:00,57.0,24.2,30.17,WSW,247,8.1,8.1,28,0.00,CLR,SKC,0.00,WeatherDisplay:10.37,2013-04-03 21:55:00,
2013-04-03 18:00:00,57.0,24.2,30.17,North,360,5.8,5.8,28,0.00,CLR,SKC,0.00,WeatherDisplay:10.37,2013-04-03 22:00:00,
2013-04-03 18:05:00,57.0,24.2,30.17,West,270,6.0,6.0,28,0.00,CLR,SKC,0.00,WeatherDisplay:10.37,2013-04-03 22:05:00,
2013-04-03 18:10:00,56.0,23.3,30.17,West,270,6.0,6.0,28,0.00,CLR,SKC,0.00,WeatherDisplay:10.37,2013-04-03 22:10:00,
2013-04-03 18:15:00,56.0,23.3,30.17,WNW,292,6.9,6.9,28,0.00,CLR,SKC,0.00,WeatherDisplay:10.37,2013-04-03 22:15:00,
2013-04-03 18:20:00,56.0,23.3,30.17,West,270,5.8,5.8,28,0.00,CLR,SKC,0.00,WeatherDisplay:10.37,2013-04-03 22:20:00,
2013-04-03 18:25:00,56.0,23.3,30.19,WNW,292,4.0,4.0,28,0.00,CLR,SKC,0.00,WeatherDisplay:10.37,2013-04-03 22:25:00,
2013-04-03 18:30:00,55.0,22.4,30.19,NNE,22,10.4,10.4,28,0.00,CLR,SKC,0.00,WeatherDisplay:10.37,2013-04-03 22:30:00,
2013-04-03 18:35:00,55.0,23.3,30.19,WNW,292,5.8,5.8,29,0.00,CLR,SKC,0.00,WeatherDisplay:10.37,2013-04-03 22:35:00,
2013-04-03 18:40:00,55.0,23.3,30.19,North,360,2.3,2.3,29,0.00,CLR,SKC,0.00,WeatherDisplay:10.37,2013-04-03 22:40:00,
2013-04-03 18:45:00,54.0,22.4,30.21,NNE,22,5.8,5.8,29,0.00,CLR,SKC,0.00,WeatherDisplay:10.37,2013-04-03 22:45:00,
2013-04-03 18:50:00,54.0,22.4,30.21,NNE,22,9.2,9.2,29,0.00,CLR,SKC,0.00,WeatherDisplay:10.37,2013-04-03 22:50:00,
2013-04-03 18:55:00,54.0,23.2,30.21,North,360,3.5,3.5,30,0.00,CLR,SKC,0.00,WeatherDisplay:10.37,2013-04-03 22:55:00,
2013-04-03 19:00:00,53.0,22.4,30.21,WNW,292,3.5,3.5,30,0.00,CLR,SKC,0.00,WeatherDisplay:10.37,2013-04-03 23:00:00,
2013-04-03 19:05:00,53.0,22.4,30.21,NNE,22,5.8,5.8,30,0.00,CLR,SKC,0.00,WeatherDisplay:10.37,2013-04-03 23:05:00,
2013-04-03 19:10:00,53.0,23.1,30.21,NNE,22,3.5,3.5,31,0.00,CLR,SKC,0.00,WeatherDisplay:10.37,2013-04-03 23:10:00,
2013-04-03 19:15:00,53.0,23.1,30.21,NNE,22,2.3,2.3,31,0.00,CLR,SKC,0.00,WeatherDisplay:10.37,2013-04-03 23:15:00,
2013-04-03 19:20:00,52.0,22.3,30.21,NNE,22,2.3,2.3,31,0.00,CLR,SKC,0.00,WeatherDisplay:10.37,2013-04-03 23:20:00,
2013-04-03 19:25:00,52.0,23.0,30.22,NNE,22,2.3,2.3,32,0.00,CLR,SKC,0.00,WeatherDisplay:10.37,2013-04-03 23:25:00,
2013-04-03 19:30:00,51.0,22.1,30.22,NNE,22,2.3,2.3,32,0.00,CLR,SKC,0.00,WeatherDisplay:10.37,2013-04-03 23:30:00,
2013-04-03 19:35:00,51.0,22.1,30.22,NNE,22,0.0,0.0,32,0.00,CLR,SKC,0.00,WeatherDisplay:10.37,2013-04-03 23:35:00,
2013-04-03 19:40:00,51.0,22.9,30.22,NNE,22,3.5,3.5,33,0.00,CLR,SKC,0.00,WeatherDisplay:10.37,2013-04-03 23:40:00,
2013-04-03 19:46:00,51.0,24.3,30.23,NNE,22,3.5,3.5,35,0.00,CLR,SKC,0.00,WeatherDisplay:10.37,2013-04-03 23:46:00,
2013-04-03 19:51:00,51.0,24.3,30.23,NNE,22,3.5,3.5,35,0.00,CLR,SKC,0.00,WeatherDisplay:10.37,2013-04-03 23:51:00,
2013-04-03 19:56:00,50.0,25.4,30.23,NNE,22,3.5,3.5,38,0.00,CLR,SKC,0.00,WeatherDisplay:10.37,2013-04-03 23:56:00,
2013-04-03 20:01:00,50.0,25.4,30.23,NNE,22,2.3,2.3,38,0.00,CLR,SKC,0.00,WeatherDisplay:10.37,2013-04-04 00:01:00,
2013-04-03 20:06:00,50.0,26.6,30.25,NNE,22,3.5,3.5,40,0.00,CLR,SKC,0.00,WeatherDisplay:10.37,2013-04-04 00:06:00,
2013-04-03 20:11:00,50.0,26.6,30.25,NNE,22,3.5,3.5,40,0.00,CLR,SKC,0.00,WeatherDisplay:10.37,2013-04-04 00:11:00,
2013-04-03 20:16:00,49.0,25.1,30.25,NNE,22,3.5,3.5,39,0.00,CLR,SKC,0.00,WeatherDisplay:10.37,2013-04-04 00:16:00,
2013-04-03 20:21:00,49.0,24.5,30.25,NNE,22,3.5,3.5,38,0.00,CLR,SKC,0.00,WeatherDisplay:10.37,2013-04-04 00:21:00,
2013-04-03 20:26:00,49.0,24.5,30.25,NNE,22,3.5,3.5,38,0.00,CLR,SKC,0.00,WeatherDisplay:10.37,2013-04-04 00:26:00,
2013-04-03 20:32:00,49.0,24.5,30.25,NNE,22,3.5,3.5,38,0.00,CLR,SKC,0.00,WeatherDisplay:10.37,2013-04-04 00:32:00,
2013-04-03 20:37:00,49.0,23.8,30.26,NNE,22,3.5,3.5,37,0.00,CLR,SKC,0.00,WeatherDisplay:10.37,2013-04-04 00:37:00,
2013-04-03 20:42:00,49.0,24.5,30.26,NNE,22,3.5,3.5,38,0.00,CLR,SKC,0.00,WeatherDisplay:10.37,2013-04-04 00:42:00,
2013-04-03 20:47:00,49.0,24.5,30.26,NNE,22,3.5,3.5,38,0.00,CLR,SKC,0.00,WeatherDisplay:10.37,2013-04-04 00:47:00,
2013-04-03 20:52:00,48.0,23.6,30.26,NNE,22,2.3,2.3,38,0.00,CLR,SKC,0.00,WeatherDisplay:10.37,2013-04-04 00:52:00,
2013-04-03 20:57:00,48.0,22.9,30.27,NNE,22,3.5,3.5,37,0.00,CLR,SKC,0.00,WeatherDisplay:10.37,2013-04-04 00:57:00,
2013-04-03 21:02:00,48.0,23.6,30.27,NNE,22,2.3,2.3,38,0.00,CLR,SKC,0.00,WeatherDisplay:10.37,2013-04-04 01:02:00,
2013-04-03 21:07:00,48.0,23.6,30.28,NNE,22,3.5,3.5,38,0.00,CLR,SKC,0.00,WeatherDisplay:10.37,2013-04-04 01:07:00,
2013-04-03 21:12:00,48.0,23.6,30.28,NNE,22,2.3,2.3,38,0.00,CLR,SKC,0.00,WeatherDisplay:10.37,2013-04-04 01:12:00,
2013-04-03 21:17:00,48.0,24.8,30.28,NNE,22,2.3,2.3,40,0.00,CLR,SKC,0.00,WeatherDisplay:10.37,2013-04-04 01:17:00,
2013-04-03 21:22:00,48.0,29.2,30.28,NNE,22,1.0,0.0,48,0.00,CLR,SKC,0.00,WeatherDisplay:10.37,2013-04-04 01:22:00,
2013-04-03 21:27:00,47.0,28.8,30.29,NNE,22,2.3,2.3,49,0.00,CLR,SKC,0.00,WeatherDisplay:10.37,2013-04-04 01:27:00,
2013-04-03 21:32:00,47.0,30.3,30.29,NNE,22,0.0,0.0,52,0.00,CLR,SKC,0.00,WeatherDisplay:10.37,2013-04-04 01:32:00,
2013-04-03 21:37:00,47.0,30.3,30.29,NNE,22,3.5,3.5,52,0.00,CLR,SKC,0.00,WeatherDisplay:10.37,2013-04-04 01:37:00,
2013-04-03 21:42:00,46.0,26.4,30.29,NNE,22,2.3,2.3,46,0.00,CLR,SKC,0.00,WeatherDisplay:10.37,2013-04-04 01:42:00,
2013-04-03 21:47:00,46.0,29.8,30.29,NNE,22,0.0,0.0,53,0.00,CLR,SKC,0.00,WeatherDisplay:10.37,2013-04-04 01:47:00,
2013-04-03 21:52:00,46.0,27.4,30.29,NNE,22,1.2,1.2,48,0.00,CLR,SKC,0.00,WeatherDisplay:10.37,2013-04-04 01:52:00,
2013-04-03 21:57:00,46.0,27.4,30.29,NNE,22,0.0,0.0,48,0.00,CLR,SKC,0.00,WeatherDisplay:10.37,2013-04-04 01:57:00,
2013-04-03 22:02:00,45.0,28.4,30.29,NNE,22,0.0,0.0,52,0.00,CLR,SKC,0.00,WeatherDisplay:10.37,2013-04-04 02:02:00,
2013-04-03 22:07:00,45.0,28.4,30.31,NNE,22,0.0,0.0,52,0.00,CLR,SKC,0.00,WeatherDisplay:10.37,2013-04-04 02:07:00,
2013-04-03 22:12:00,45.0,28.4,30.31,NNE,22,0.0,0.0,52,0.00,CLR,SKC,0.00,WeatherDisplay:10.37,2013-04-04 02:12:00,
2013-04-03 22:17:00,45.0,27.5,30.32,NNE,22,0.0,0.0,50,0.00,CLR,SKC,0.00,WeatherDisplay:10.37,2013-04-04 02:17:00,
2013-04-03 22:22:00,44.0,25.0,30.32,NNE,22,0.0,0.0,47,0.00,CLR,SKC,0.00,WeatherDisplay:10.37,2013-04-04 02:22:00,
2013-04-03 22:27:00,44.0,28.0,30.32,NNE,22,0.0,0.0,53,0.00,CLR,SKC,0.00,WeatherDisplay:10.37,2013-04-04 02:27:00,
2013-04-03 22:32:00,44.0,27.5,30.32,NNE,22,2.3,2.3,52,0.00,CLR,SKC,0.00,WeatherDisplay:10.37,2013-04-04 02:32:00,
2013-04-03 22:37:00,44.0,28.9,30.32,NNE,22,1.2,1.2,55,0.00,CLR,SKC,0.00,WeatherDisplay:10.37,2013-04-04 02:37:00,
2013-04-03 22:42:00,44.0,27.0,30.32,NNE,22,0.0,0.0,51,0.00,CLR,SKC,0.00,WeatherDisplay:10.37,2013-04-04 02:42:00,
2013-04-03 22:47:00,44.0,26.5,30.33,NNE,22,0.0,0.0,50,0.00,CLR,SKC,0.00,WeatherDisplay:10.37,2013-04-04 02:47:00,
2013-04-03 22:52:00,44.0,27.5,30.33,NNE,22,0.0,0.0,52,0.00,CLR,SKC,0.00,WeatherDisplay:10.37,2013-04-04 02:52:00,
2013-04-03 22:57:00,44.0,27.0,30.33,NNE,22,0.0,0.0,51,0.00,CLR,SKC,0.00,WeatherDisplay:10.37,2013-04-04 02:57:00,
2013-04-03 23:02:00,43.0,28.4,30.33,NNE,22,0.0,0.0,56,0.00,CLR,SKC,0.00,WeatherDisplay:10.37,2013-04-04 03:02:00,
2013-04-03 23:07:00,44.0,31.8,30.33,NNE,22,0.0,0.0,62,0.00,CLR,SKC,0.00,WeatherDisplay:10.37,2013-04-04 03:07:00,
2013-04-03 23:12:00,44.0,30.2,30.33,NNE,22,0.0,0.0,58,0.00,CLR,SKC,0.00,WeatherDisplay:10.37,2013-04-04 03:12:00,
2013-04-03 23:18:00,43.0,26.1,30.32,NNE,22,3.5,3.5,51,0.00,CLR,SKC,0.00,WeatherDisplay:10.37,2013-04-04 03:18:00,
2013-04-03 23:23:00,44.0,24.5,30.32,NNE,22,0.0,0.0,46,0.00,CLR,SKC,0.00,WeatherDisplay:10.37,2013-04-04 03:23:00,
2013-04-03 23:28:00,44.0,27.5,30.33,NNE,22,0.0,0.0,52,0.00,CLR,SKC,0.00,WeatherDisplay:10.37,2013-04-04 03:28:00,
2013-04-03 23:33:00,44.0,27.5,30.33,NNE,22,0.0,0.0,52,0.00,CLR,SKC,0.00,WeatherDisplay:10.37,2013-04-04 03:33:00,
2013-04-03 23:38:00,44.0,27.5,30.32,NNE,22,3.5,3.5,52,0.00,CLR,SKC,0.00,WeatherDisplay:10.37,2013-04-04 03:38:00,
2013-04-03 23:43:00,44.0,27.5,30.32,NNE,22,0.0,0.0,52,0.00,CLR,SKC,0.00,WeatherDisplay:10.37,2013-04-04 03:43:00,
2013-04-03 23:48:00,43.0,28.4,30.32,NNE,22,0.0,0.0,56,0.00,CLR,SKC,0.00,WeatherDisplay:10.37,2013-04-04 03:48:00,
2013-04-03 23:53:00,43.0,26.1,30.32,NNE,22,3.5,3.5,51,0.00,CLR,SKC,0.00,WeatherDisplay:10.37,2013-04-04 03:53:00,
2013-04-03 23:58:00,43.0,23.6,30.32,NNE,22,0.0,0.0,46,0.00,CLR,SKC,0.00,WeatherDisplay:10.37,2013-04-04 03:58:00,